Wind_Speed
13 12 12 11 10 9 8 6 5 4 4 4 3 2 2 3 3 3 4 4 5 6 8 10 12 14 16 17 17 17 17 15 14 12 12 11 11 11 11 10 10 10 10 10 10 11 12 13 14 15 16 16 17 17 17 18 19 19 20 20 20 21 21 22 22 22 22 22 22 22 23 24 23 22 24 25 27 28 29 30 30 31 31 31 32 32 32 32
13 13 12 11 10 9 8 6 5 5 4 3 2 1 2 3 3 4 4 5 6 8 10 12 14 15 16 16 16 14 12 11 11 10 10 10 10 10 10 10 9 9 10 11 12 14 15 16 16 17 17 18 18 18 19 19 19 20 21 21 22 22 23 23 23 23 23 23 22 23 24 25 24 24 25 26 27 29 30 31 31 31 31 31 32 32 33 33
14 13 12 11 9 8 7 5 5 4 4 2 1 1 2 3 4 4 5 7 9 11 12 14 15 15 14 13 12 10 9 9 9 9 9 10 9 10 10 10 11 12 13 14 15 16 16 16 17 18 18 19 19 19 20 20 20 21 21 21 22 22 22 21 21 21 22 22 22 22 24 25 26 26 27 29 30 31 31 31 31 31 32 32 33 34 35 36
15 13 12 11 10 9 7 5 4 4 3 1 1 2 3 4 4 5 7 9 11 13 13 14 13 12 10 9 9 8 8 8 8 9 9 9 10 11 11 12 13 14 15 15 16 16 16 17 18 19 19 19 19 20 20 20 19 19 19 20 20 20 20 20 21 21 22 23 23 24 26 27 27 28 30 31 32 32 32 32 32 33 34 35 36 37 38 40
16 14 13 11 10 9 7 5 4 3 2 2 2 3 3 4 5 6 9 11 12 13 12 11 9 8 7 7 7 8 7 7 8 9 10 10 11 12 13 13 14 14 15 15 16 16 17 18 18 18 17 17 18 18 18 18 18 18 19 19 20 21 22 22 23 24 24 25 26 27 28 28 29 30 31 33 34 34 34 35 35 36 37 38 39 40 42 43
15 14 13 12 10 9 8 5 3 2 2 2 3 3 4 4 6 8 10 12 12 11 9 8 7 7 6 7 7 8 7 8 10 10 11 11 12 13 13 13 14 15 15 15 16 16 17 16 16 16 16 17 17 18 19 20 20 21 21 21 22 24 24 24 25 26 27 27 28 28 29 29 31 32 33 34 35 36 36 37 38 39 40 41 42 43 45 46
14 14 13 12 11 9 7 5 3 3 3 3 3 3 4 6 8 9 10 10 8 7 6 6 7 7 7 7 8 7 8 10 11 11 11 12 12 13 14 14 15 15 15 15 15 15 15 16 16 17 18 19 19 20 21 22 22 23 22 24 25 25 25 26 27 27 27 28 29 29 30 31 32 33 34 35 36 37 38 38 40 41 42 43 44 45 46 47
14 14 14 12 11 9 7 5 4 4 4 4 3 4 6 7 9 9 8 6 6 6 7 7 8 8 8 8 9 10 12 12 11 12 12 13 14 14 14 14 14 13 14 15 15 16 17 18 19 19 20 20 21 22 22 23 23 23 24 25 25 25 26 27 27 28 28 29 30 30 31 32 32 33 34 36 37 38 39 40 41 42 43 44 45 46 46 47
16 15 14 12 11 9 7 5 5 5 4 3 4 5 7 8 7 6 5 6 7 8 8 9 9 8 8 9 11 12 13 12 12 13 13 13 14 13 12 13 14 14 16 17 18 18 19 20 20 20 21 21 22 22 22 23 23 24 25 25 25 26 27 27 28 29 29 30 31 31 31 32 33 33 34 36 37 39 40 41 42 43 44 45 45 46 47 47
16 16 14 12 11 9 7 6 6 5 3 3 4 6 6 5 5 6 8 9 9 9 10 10 9 9 10 12 13 13 12 12 12 12 12 13 13 13 13 14 16 17 18 19 19 19 19 20 20 21 22 22 23 24 23 24 25 25 25 25 26 27 27 28 29 30 30 30 31 31 31 32 32 33 35 36 37 39 40 41 42 43 44 45 46 47 47 48
15 15 14 12 11 9 7 6 5 3 2 3 4 4 5 6 8 9 10 10 10 10 10 10 10 11 12 13 13 12 12 12 12 12 12 13 14 15 16 16 18 19 19 20 20 20 20 21 22 23 24 24 25 25 24 25 25 25 26 26 27 27 28 29 29 30 30 31 31 31 31 32 33 34 36 37 39 40 41 42 43 43 45 47 48 48 48 49
14 14 13 12 11 10 8 6 4 1 1 2 3 6 8 9 10 11 11 11 10 10 10 10 11 12 13 13 12 12 12 12 12 12 13 14 15 16 17 18 19 19 19 20 21 21 23 23 24 25 25 25 25 25 25 26 26 26 26 27 28 28 28 29 29 31 31 32 32 33 33 33 34 36 37 39 40 42 43 44 46 46 48 49 49 49 50 50
14 13 13 12 10 9 7 4 2 1 2 5 8 10 11 12 12 12 11 11 11 10 11 11 12 13 13 13 12 12 12 13 13 14 15 15 16 17 18 19 20 20 21 22 23 23 24 24 24 25 25 26 25 25 26 26 27 27 27 27 28 29 29 29 30 32 32 33 34 36 36 35 37 39 40 41 42 44 46 47 48 49 49 50 50 50 51 51
14 13 12 9 7 6 5 4 3 5 8 10 12 12 13 13 13 12 12 11 11 11 12 13 13 13 12 13 13 12 13 13 14 15 16 17 18 19 20 21 22 22 22 23 22 23 23 23 25 25 26 26 26 26 26 27 27 27 27 27 28 29 30 31 32 33 34 35 36 39 40 39 40 43 42 43 44 46 48 49 50 50 51 51 51 52 52 51
14 12 10 8 7 7 6 6 8 11 13 14 14 14 14 13 13 13 12 12 13 14 14 14 14 12 12 13 13 13 14 14 15 17 18 19 20 21 22 22 22 22 22 22 22 22 23 23 24 25 25 25 25 24 25 25 26 26 27 28 29 30 32 33 34 35 36 38 40 42 44 43 44 46 46 46 47 48 49 50 52 52 52 52 52 52 52 52
13 12 10 9 8 8 9 11 14 15 15 16 15 15 14 14 14 14 13 14 15 15 15 14 13 12 13 14 13 14 15 16 18 19 20 21 21 22 22 22 22 21 21 21 22 22 22 22 23 23 24 24 23 23 23 25 26 28 29 30 31 31 32 34 36 38 39 41 42 44 46 46 47 49 48 49 49 49 50 50 52 52 52 53 52 52 52 54
13 12 11 10 10 11 14 16 17 17 17 16 15 15 15 15 15 15 16 16 15 15 14 14 14 14 15 14 14 16 17 19 19 20 20 21 21 21 21 20 20 20 21 21 21 21 21 22 22 23 23 23 24 25 26 28 29 30 31 32 33 33 34 35 36 39 41 43 43 44 46 47 48 50 50 50 51 50 51 50 51 51 52 52 52 52 52 54
13 12 12 12 15 17 19 19 19 18 17 16 15 16 16 16 16 17 16 15 15 14 14 14 15 15 16 16 17 18 19 20 20 20 21 21 20 20 20 20 20 21 22 23 21 20 21 22 22 23 24 25 27 29 30 31 32 32 33 34 35 35 36 37 38 41 43 44 44 43 46 48 48 50 52 52 53 53 52 51 51 52 53 53 52 52 52 55
13 13 15 18 20 21 21 20 19 18 17 16 16 18 18 17 17 16 14 14 15 15 15 16 17 17 17 19 20 20 21 21 21 21 21 21 20 20 21 21 20 22 22 23 22 20 21 22 24 25 26 28 30 31 32 33 34 35 36 36 37 38 38 39 40 42 45 46 45 45 48 50 50 51 54 55 55 55 54 53 54 54 55 54 54 54 55 58
15 18 20 22 22 22 21 21 20 19 19 19 20 21 20 18 16 14 13 15 17 16 16 18 19 19 20 21 22 22 22 22 23 22 21 21 21 20 22 21 20 21 22 22 23 23 23 24 26 28 28 29 31 32 34 35 35 37 39 40 41 42 41 41 42 44 47 47 46 47 50 50 51 53 55 56 55 55 55 55 55 55 55 55 55 56 57 59
20 23 24 24 23 22 22 21 21 21 22 22 23 23 20 16 14 14 16 18 18 18 18 20 21 22 22 22 22 22 22 21 21 22 21 21 22 20 21 22 20 21 22 23 23 24 26 26 28 30 31 32 34 35 37 38 39 39 41 41 42 43 42 42 44 46 47 47 46 48 50 50 51 52 54 55 55 55 55 55 55 54 54 54 55 56 57 59
25 25 25 24 23 22 22 22 23 24 25 24 23 21 18 16 16 17 18 19 19 19 20 21 22 22 22 21 21 21 21 21 20 22 22 20 22 22 21 22 23 22 24 25 25 26 29 30 31 33 34 35 36 37 38 39 40 40 40 41 41 42 42 41 42 45 46 47 47 48 50 50 50 51 52 53 54 55 56 55 55 54 53 53 54 56 57 59
26 26 25 24 23 23 24 25 25 25 25 23 21 19 18 18 18 20 21 20 20 20 20 20 21 21 21 20 20 19 20 21 20 21 22 21 22 24 22 23 26 26 27 29 29 30 32 32 33 34 35 35 36 36 37 37 39 40 40 41 42 43 44 43 43 44 46 48 49 50 51 51 51 50 51 53 54 55 56 56 55 54 54 54 55 57 59 63
27 26 25 24 25 26 27 27 26 25 23 21 19 18 19 19 20 22 22 21 21 20 19 19 19 19 20 20 20 20 20 21 22 22 23 24 24 25 25 25 28 29 30 31 31 32 32 32 32 33 33 34 34 35 36 36 37 39 40 41 42 43 45 46 46 47 47 48 50 52 53 54 53 53 53 55 56 56 57 56 55 55 56 57 59 61 65 68
26 25 25 26 28 29 28 27 25 23 21 19 18 18 19 20 21 21 20 20 20 19 19 18 18 19 20 21 21 20 22 23 24 24 24 25 26 26 27 26 27 28 29 29 29 30 30 30 31 32 32 33 34 35 36 38 38 38 40 41 42 43 44 46 48 50 50 50 51 54 57 56 55 56 56 56 58 59 58 56 57 59 60 62 64 66 68 68
26 27 28 29 30 30 28 26 24 22 20 19 19 19 19 19 19 19 18 18 18 18 18 19 19 20 20 22 23 22 23 24 24 25 25 26 26 27 27 26 27 27 27 28 28 29 30 31 32 33 34 35 36 37 39 40 40 40 41 42 43 45 46 47 49 51 52 53 53 54 58 59 58 58 58 59 60 59 58 59 61 63 65 66 67 67 66 66
27 29 30 31 30 29 26 24 22 21 19 19 19 18 18 17 16 16 16 16 17 17 18 19 20 21 21 22 24 23 24 25 24 25 26 26 25 26 26 26 27 27 27 28 29 31 32 32 34 34 36 38 39 40 41 42 42 42 44 45 45 46 48 49 50 51 53 55 55 54 58 61 61 60 60 60 60 59 59 62 65 66 68 68 67 65 65 67
30 31 31 30 29 27 25 23 21 19 18 18 17 17 16 16 15 15 15 16 19 19 19 20 20 21 21 21 22 23 23 25 24 23 23 23 25 26 26 27 28 28 29 30 31 33 34 35 36 37 39 41 41 42 43 44 45 45 46 47 48 48 49 50 51 51 53 56 55 56 60 62 62 61 61 60 59 60 63 66 68 69 69 68 66 66 68 71
32 32 31 29 27 25 23 21 19 18 18 17 16 15 15 15 14 14 15 17 20 20 20 21 21 21 21 21 22 22 23 24 24 24 24 24 26 28 28 30 31 31 31 31 33 35 36 38 39 39 41 42 42 44 45 46 47 47 47 48 48 50 51 52 53 52 54 56 56 57 61 63 62 59 60 61 61 64 67 68 70 70 69 68 68 69 72 75
32 31 29 27 25 23 21 19 18 17 16 15 15 14 14 15 15 15 16 17 19 21 21 21 22 22 22 22 22 23 24 25 25 26 28 28 29 31 32 33 33 33 32 32 33 36 38 40 41 41 43 44 44 45 47 48 48 49 49 49 50 51 52 53 54 54 55 55 55 57 59 62 62 58 58 62 64 66 68 70 71 70 69 69 70 72 76 79
31 29 27 25 23 21 19 18 17 16 15 14 13 13 14 15 15 16 18 18 18 20 21 21 21 21 21 22 24 24 24 25 26 28 29 29 31 33 33 33 34 35 35 34 34 36 39 41 42 43 45 46 47 47 48 49 49 50 50 51 53 54 53 55 54 54 56 55 53 56 58 60 62 60 60 63 65 67 68 69 70 70 70 70 71 75 79 81
29 27 25 23 21 19 18 16 15 14 13 13 13 12 13 15 15 16 18 19 19 20 21 20 21 22 22 24 25 26 26 28 29 30 31 30 32 34 35 37 38 39 41 40 38 38 40 43 44 46 48 48 49 50 49 49 50 51 51 52 55 57 57 58 56 55 57 56 54 55 57 59 59 60 62 64 66 68 69 69 70 70 70 71 74 78 81 81
26 24 22 21 19 17 16 15 14 13 13 13 13 13 12 14 16 17 18 19 19 20 21 21 21 23 24 25 27 27 28 31 32 32 34 35 36 38 39 41 43 43 45 45 44 42 41 45 47 48 49 49 51 52 51 51 51 51 52 54 55 57 58 60 59 59 59 58 57 56 58 59 59 61 63 65 67 69 69 70 69 69 71 74 76 80 83 82
24 22 20 18 17 16 15 14 14 13 13 13 13 14 14 15 16 17 18 19 19 19 21 22 22 25 27 27 28 29 29 32 34 35 37 38 38 40 42 43 45 46 47 48 49 47 45 46 48 50 51 51 51 53 53 53 53 53 53 54 54 55 58 60 61 62 62 62 60 58 59 61 62 64 65 66 68 69 70 69 69 71 73 74 76 80 83 82
22 20 18 17 15 15 14 14 13 13 13 13 13 14 16 16 16 18 18 19 20 20 22 24 25 27 29 29 30 32 33 34 36 37 39 40 40 42 44 45 46 48 49 50 52 52 49 47 49 51 51 52 53 53 53 53 54 54 53 53 54 55 57 60 61 62 63 65 63 60 60 61 63 66 67 67 68 68 69 70 70 72 73 74 77 81 83 82
19 18 16 15 14 14 14 14 13 14 14 14 14 15 16 17 17 18 19 20 21 22 22 24 27 28 30 31 32 35 36 37 38 39 40 41 42 44 45 47 48 49 51 53 54 56 53 49 49 52 52 54 56 55 54 54 54 54 53 52 54 56 57 60 61 60 60 65 66 63 61 62 64 66 66 66 67 68 69 71 71 73 75 76 79 81 83 84
17 16 15 15 14 14 14 13 14 14 14 14 15 16 16 17 18 19 20 20 22 23 23 25 27 28 30 32 34 36 37 38 39 40 41 42 44 45 47 48 50 51 52 54 55 57 57 53 51 54 55 55 57 56 54 54 53 53 54 53 55 57 59 60 62 62 61 65 68 65 64 66 67 68 68 67 68 69 70 72 74 76 77 77 79 81 84 86
16 15 15 15 15 14 14 14 14 14 14 14 16 16 16 18 19 19 20 21 22 24 25 26 28 30 31 33 35 36 37 38 39 41 42 43 44 46 48 50 51 52 54 55 56 57 60 57 54 55 57 56 58 57 55 55 55 54 54 54 56 58 59 60 62 64 64 68 71 69 68 70 70 69 70 69 69 70 72 75 77 77 77 78 81 83 86 88
15 14 14 15 15 14 14 14 14 14 14 15 16 16 17 18 19 20 20 21 23 24 26 27 29 31 32 34 35 36 37 38 40 41 43 44 45 47 49 51 52 54 55 56 58 58 60 61 58 57 58 57 58 58 58 57 57 56 56 55 56 57 58 60 61 62 64 68 72 73 73 74 73 72 70 69 71 74 76 78 78 77 77 79 83 86 88 89
15 14 14 15 14 14 14 14 13 14 15 15 15 16 17 18 18 20 21 21 23 25 26 28 29 31 32 33 35 36 37 38 40 42 44 45 47 48 50 52 54 55 56 57 58 59 61 63 62 60 59 59 59 59 60 59 58 58 57 56 56 56 58 61 62 60 61 66 70 73 77 78 74 72 71 72 76 78 79 79 77 77 78 81 85 87 89 89
14 15 15 14 13 12 13 14 13 14 15 15 15 16 17 17 18 19 21 22 24 25 27 28 29 31 32 33 34 36 37 39 41 43 45 47 48 50 52 53 55 56 57 58 59 60 62 64 65 64 62 62 60 60 61 61 60 59 58 57 57 57 58 62 65 63 62 66 67 70 77 79 72 70 73 76 78 80 79 78 78 79 81 84 87 88 89 90
15 15 14 13 13 12 12 14 14 15 14 14 15 15 16 16 17 19 21 23 24 26 27 29 30 31 32 33 34 36 37 40 42 44 45 47 49 51 53 54 56 57 59 60 60 61 63 64 66 66 66 65 64 64 65 65 63 60 58 58 58 59 59 61 65 66 65 67 66 69 77 78 71 71 75 77 79 80 80 79 80 82 84 86 87 88 89 90
15 14 13 12 13 13 13 14 15 14 14 14 14 15 15 16 17 19 21 23 24 26 27 29 30 31 32 34 35 37 39 40 43 44 46 47 49 52 54 55 57 59 60 61 62 63 63 65 67 67 67 65 65 67 69 68 65 62 59 58 59 59 59 60 63 65 68 69 66 70 77 76 71 73 76 77 79 80 79 80 82 83 85 86 87 89 90 90
15 13 12 12 13 14 15 15 14 14 14 14 14 15 15 16 18 19 21 23 24 25 27 28 29 31 33 35 36 38 40 41 43 45 47 48 50 52 54 57 59 60 62 63 64 64 64 66 68 69 70 69 68 69 71 70 67 63 60 59 60 60 60 61 63 64 68 70 68 72 77 76 73 74 76 77 78 79 79 80 82 84 85 87 88 89 89 89
14 13 13 12 13 16 16 14 14 14 14 14 14 15 15 16 18 19 21 23 24 25 26 27 29 30 33 35 36 38 40 42 44 46 48 49 51 53 55 58 60 62 63 65 65 66 66 67 68 69 71 73 73 72 72 72 70 66 63 61 61 62 62 63 64 65 68 72 72 72 76 79 77 74 76 78 79 80 81 82 83 85 87 88 89 90 89 88
14 13 13 14 15 16 15 14 14 14 13 14 15 15 15 16 18 20 21 22 24 25 26 28 29 30 32 34 36 37 40 43 45 46 48 49 52 54 57 59 62 63 65 66 67 67 67 68 68 67 68 71 73 72 71 72 70 68 66 64 63 63 64 65 65 66 68 73 77 74 75 80 80 76 78 81 81 82 84 84 86 87 88 89 90 89 87 84
14 13 13 14 15 15 14 13 14 14 14 14 14 15 16 17 18 20 20 22 23 25 26 28 30 31 32 34 35 37 40 43 45 46 48 50 52 55 58 60 63 65 66 67 68 68 68 69 69 68 68 71 73 73 72 71 69 68 68 67 65 65 66 67 67 68 69 74 79 78 76 80 80 78 81 82 83 84 85 86 87 88 89 89 87 83 80 79
14 13 13 14 14 14 14 14 14 14 14 14 15 15 16 17 18 19 21 21 23 25 26 28 30 32 33 35 37 39 41 42 44 46 48 50 52 55 58 61 63 65 67 68 68 69 69 70 71 70 70 73 75 74 73 73 71 69 69 69 68 67 68 70 70 71 71 74 79 80 80 81 80 80 82 83 83 85 86 87 88 87 86 84 80 78 76 76
13 13 12 12 13 13 14 14 14 13 14 14 15 15 16 17 18 19 21 22 23 25 27 28 30 32 34 36 38 41 43 44 45 46 48 50 52 55 58 61 64 66 68 69 70 70 70 71 72 72 71 73 76 75 75 75 74 72 71 70 70 69 70 72 73 72 73 76 78 80 81 81 80 81 83 83 84 85 86 86 85 83 80 78 76 76 76 77
12 12 11 11 12 13 13 14 13 13 14 14 15 16 16 18 18 19 21 22 23 25 27 29 30 32 34 36 38 41 43 44 45 47 48 50 52 55 58 62 65 68 70 71 71 72 72 72 73 74 73 74 76 77 76 76 76 75 73 72 71 72 73 75 75 75 76 79 81 81 83 83 82 83 84 84 84 85 84 83 80 78 77 76 76 76 77 78
11 12 11 10 11 12 12 13 13 13 14 15 15 16 17 18 19 20 20 22 23 24 26 28 30 32 34 36 38 40 42 44 45 47 49 50 52 55 59 62 66 69 71 73 73 73 74 73 74 75 75 75 78 79 78 78 78 77 75 74 74 76 78 78 78 77 77 80 84 85 87 87 86 85 85 85 85 85 83 80 78 76 76 75 76 77 78 79
9 10 9 9 10 11 12 13 13 13 14 15 16 17 17 18 19 20 20 22 23 25 26 28 30 32 33 35 38 40 42 43 45 48 49 51 53 56 60 63 66 70 72 74 75 75 75 75 75 77 77 77 80 81 81 81 82 80 78 77 77 79 81 82 81 78 77 80 85 87 88 87 86 86 86 85 85 84 82 79 77 77 76 76 78 79 79 79
Wind_Direction
164 160 158 156 155 152 151 157 165 180 195 207 215 232 266 273 267 262 263 274 289 302 309 312 312 311 312 313 314 315 317 321 327 334 337 338 340 344 346 345 343 340 339 337 338 337 335 335 335 332 330 330 328 326 324 321 319 315 312 310 309 307 307 307 307 306 305 302 296 292 291 292 292 290 289 290 289 289 290 289 289 288 288 288 288 289 289 290
164 166 166 165 163 158 159 166 175 189 202 207 210 237 264 260 261 265 277 294 309 315 317 318 317 317 317 317 318 322 328 336 343 347 345 347 351 352 351 349 346 344 344 342 341 340 340 339 337 333 333 333 331 328 325 322 319 315 313 311 310 310 310 310 309 307 305 303 299 296 296 297 297 295 294 293 291 289 289 288 288 288 288 289 289 289 289 290
166 169 172 175 172 167 171 176 184 199 209 208 205 238 248 252 264 280 302 317 322 323 323 323 322 321 322 326 333 340 349 356 355 354 354 358 359 356 355 352 348 346 346 345 343 343 342 340 336 335 335 333 329 327 323 320 317 314 314 314 314 315 314 313 311 308 307 306 303 299 298 299 299 298 297 295 293 291 290 289 288 287 288 288 289 289 289 289
169 171 174 178 177 177 181 185 196 210 216 212 220 237 248 260 280 304 321 326 327 328 327 326 326 328 336 347 354 359 6 7 1 1 4 6 3 358 355 353 350 349 348 347 346 343 341 339 336 335 332 329 327 325 322 320 318 318 320 321 321 320 318 315 312 310 309 307 304 302 301 301 301 300 298 296 295 293 292 290 289 288 289 290 290 290 290 290
173 174 178 181 181 183 186 192 205 220 228 224 233 247 261 277 303 322 329 330 332 332 332 335 340 350 2 9 12 14 13 11 10 11 9 5 1 356 355 353 351 350 347 346 343 338 339 337 334 333 331 332 332 329 328 326 325 327 328 326 323 321 318 315 313 311 309 307 305 304 304 302 301 300 298 297 296 294 293 291 290 290 290 291 291 291 291 292
177 178 182 185 186 189 192 199 216 236 235 233 243 256 275 302 324 332 334 335 337 340 346 358 12 22 24 24 25 21 17 20 17 10 4 1 358 354 352 350 346 344 343 341 338 339 342 340 338 341 343 343 341 335 333 332 331 330 327 324 321 319 317 314 312 310 308 306 305 304 303 301 300 299 298 296 295 294 292 291 290 290 290 291 291 291 292 292
186 185 189 190 190 193 196 203 226 242 236 237 250 273 308 329 338 338 339 342 350 4 21 33 39 38 32 34 34 22 20 21 11 3 0 358 355 349 345 344 343 344 344 344 346 350 351 348 349 350 347 344 340 335 334 332 329 326 322 320 318 316 315 313 310 308 307 305 303 302 301 300 299 299 298 295 294 293 292 290 289 290 290 290 290 290 291 291
197 195 195 194 193 196 198 208 234 240 233 244 272 314 335 343 343 345 352 8 33 48 52 51 48 45 40 37 33 21 18 16 4 360 357 353 350 345 344 348 351 354 356 355 356 355 352 352 349 347 342 338 335 332 331 328 325 321 319 318 316 314 313 310 308 306 304 302 301 300 300 299 298 297 296 293 292 292 291 290 290 290 291 291 291 291 290 290
204 203 201 196 195 199 201 217 238 233 236 270 318 339 345 349 354 10 42 60 64 62 61 57 51 46 38 32 29 21 16 10 1 359 355 354 354 352 356 1 2 1 360 358 356 352 350 349 344 340 336 333 331 329 326 323 321 318 317 316 313 312 309 307 305 303 302 301 301 301 301 300 297 296 294 292 292 292 292 292 292 292 291 291 291 290 290 290
206 207 203 197 197 201 206 225 235 231 252 316 340 347 357 12 42 70 77 74 70 66 61 56 48 40 33 31 29 19 13 9 5 5 4 8 7 4 3 1 2 0 357 356 354 350 346 342 338 334 331 330 328 326 324 321 319 318 316 313 311 309 306 305 303 303 304 303 303 303 303 301 298 297 295 294 294 294 294 293 293 292 291 291 290 290 290 289
205 204 200 197 199 203 211 227 230 231 291 339 353 14 47 74 83 83 80 75 70 64 57 50 43 38 33 31 26 18 17 19 17 16 15 14 10 5 1 358 360 357 353 350 347 343 339 336 334 331 329 329 327 325 323 320 318 317 314 312 311 309 307 306 306 307 307 307 306 305 306 305 301 299 297 297 297 296 295 294 293 293 292 292 291 291 291 290
199 198 193 193 198 205 215 221 216 219 333 19 58 83 93 93 89 85 80 73 67 61 56 49 42 37 36 35 32 30 29 27 21 17 13 10 5 0 356 355 355 350 346 344 340 337 336 334 332 330 330 329 327 326 323 321 319 317 316 315 315 314 312 312 312 311 311 310 309 307 309 307 303 301 300 299 298 297 296 295 295 295 294 293 293 293 292 291
188 185 183 188 198 205 203 190 174 142 91 97 100 102 100 94 89 83 77 70 63 58 53 48 44 44 47 47 42 36 30 23 16 9 5 1 357 352 350 350 347 343 341 339 337 335 334 333 332 332 332 331 329 327 325 324 323 322 321 320 319 319 317 317 315 313 311 311 308 306 308 308 304 302 301 300 299 298 297 297 297 296 295 295 295 295 294 292
173 173 175 181 183 176 165 154 141 118 110 110 108 105 98 91 85 79 73 66 59 55 53 54 55 54 54 49 39 29 22 16 9 0 355 352 349 348 346 346 343 341 340 338 336 336 336 336 336 335 335 334 333 331 329 329 329 328 326 323 322 320 317 316 314 311 310 308 306 304 307 308 305 303 302 301 300 299 299 299 298 297 297 297 297 295 294 293
162 163 161 155 149 147 148 138 123 117 116 114 109 102 95 89 82 75 68 65 64 64 63 62 61 55 47 40 29 18 10 3 358 353 350 349 350 349 348 346 346 344 343 342 342 342 342 341 340 340 341 342 340 336 333 331 330 329 326 323 322 318 315 314 311 310 309 308 308 306 308 310 306 305 305 304 302 301 301 300 299 299 298 298 297 296 294 293
150 147 143 141 145 143 133 124 120 119 117 112 105 98 92 85 78 72 71 72 74 72 67 62 56 45 36 28 16 7 0 357 356 353 352 353 354 354 351 350 351 350 349 350 352 350 348 347 347 348 347 345 341 335 331 328 328 326 323 321 318 316 313 311 309 310 311 310 310 308 310 311 307 306 306 305 304 303 303 301 300 300 300 298 298 297 295 294
140 138 139 140 137 128 123 121 120 118 113 108 102 96 87 79 76 78 78 78 75 69 61 53 42 34 27 18 7 2 359 359 359 356 356 359 1 360 359 359 360 359 1 2 1 356 352 350 349 347 344 341 337 333 328 326 326 323 322 320 317 316 314 313 311 310 312 311 311 309 309 309 307 307 308 307 307 307 306 304 302 301 300 300 300 299 297 295
136 136 135 131 126 123 122 121 118 114 108 103 98 91 83 80 83 83 80 75 68 59 50 40 32 26 19 12 7 6 8 10 11 10 12 14 14 14 12 12 11 8 7 6 1 356 353 349 345 340 337 335 332 330 328 327 325 323 322 320 317 317 316 315 313 311 313 313 312 310 309 309 309 309 309 310 310 310 309 306 305 305 305 305 304 302 298 295
132 130 128 126 125 124 122 118 114 108 102 97 94 90 86 88 90 85 78 69 58 48 39 31 27 23 19 20 22 26 29 30 30 28 27 26 24 23 18 14 12 8 6 3 357 351 347 345 342 337 332 330 329 328 328 326 324 323 322 320 319 319 318 317 315 314 315 315 315 313 310 311 312 311 311 312 312 311 309 308 308 308 308 307 306 303 299 296
126 127 126 126 124 122 119 115 109 102 97 95 95 92 90 92 90 83 70 57 48 41 36 33 35 35 37 40 40 41 40 37 35 31 28 26 23 21 17 12 6 3 0 356 352 348 342 338 337 335 330 328 328 327 327 326 325 325 324 324 323 321 321 321 318 316 315 315 316 313 310 312 312 312 312 311 311 309 309 309 309 309 308 308 306 302 298 297
127 128 126 124 122 119 114 109 103 99 96 95 95 93 93 91 82 69 57 51 46 45 47 48 51 50 48 47 44 42 39 35 32 28 24 22 19 15 11 7 1 356 353 348 344 341 338 333 333 332 330 329 329 329 329 328 327 326 325 324 322 320 321 321 317 315 313 313 315 313 311 313 312 311 311 310 309 309 310 310 310 310 309 307 303 300 299 298
129 127 125 122 119 114 108 104 102 101 99 97 96 94 90 80 69 62 58 59 59 60 62 60 57 53 48 45 41 39 36 31 27 24 20 16 13 8 3 359 357 352 347 344 339 337 335 333 333 333 332 332 332 331 330 329 327 325 324 322 321 319 319 320 316 313 312 313 317 316 314 315 313 311 310 309 309 310 311 311 311 311 309 306 303 301 299 297
129 126 123 119 114 109 105 103 103 103 102 99 95 88 80 73 72 71 70 71 70 67 65 59 55 50 45 41 37 33 28 23 19 17 14 9 5 2 357 353 351 348 344 342 339 337 337 335 335 335 334 333 333 332 330 328 325 324 324 322 321 319 319 320 318 317 316 316 317 317 317 318 315 313 312 310 311 312 312 313 314 313 310 307 304 300 298 298
127 124 119 114 109 107 106 106 107 105 102 98 91 84 79 80 81 79 76 73 68 62 57 54 51 45 39 34 30 26 20 16 13 9 6 3 0 356 355 350 347 346 344 343 340 339 338 337 337 337 336 335 334 332 330 329 327 325 324 323 323 321 319 319 319 321 322 319 317 317 319 321 319 317 315 314 315 315 315 317 316 313 310 306 303 300 300 301
123 119 113 110 109 108 109 109 107 103 98 92 87 86 87 85 83 79 74 69 62 55 49 44 41 38 33 26 23 18 13 10 7 5 1 358 357 355 354 352 349 348 347 345 343 342 342 340 340 339 339 338 336 335 333 333 333 329 327 326 324 323 322 321 321 322 325 324 322 319 319 321 321 318 318 319 319 318 318 318 315 311 308 305 304 304 304 305
118 114 111 111 111 111 111 109 104 98 92 88 87 88 87 82 77 71 67 63 57 50 42 35 31 28 24 19 16 11 8 7 4 3 2 359 358 357 355 354 354 352 351 349 346 346 346 343 343 343 342 341 340 339 338 337 336 333 331 330 327 327 326 325 323 323 325 326 325 320 317 320 322 320 321 322 320 319 318 316 312 309 308 308 307 307 307 307
114 113 114 114 114 112 110 106 100 94 89 88 88 87 82 75 68 62 57 52 48 42 35 30 26 22 18 14 11 7 7 9 5 5 4 0 359 360 357 356 356 355 355 354 351 350 349 347 347 347 345 344 343 342 340 338 337 336 334 333 331 330 328 327 325 325 325 326 325 321 317 320 322 323 324 322 319 318 317 313 311 311 310 310 310 308 307 305
114 115 116 115 113 110 106 102 96 91 88 88 87 83 77 69 62 54 47 42 39 34 29 27 25 20 16 12 11 10 11 12 10 8 5 1 2 2 360 359 360 360 360 359 356 353 351 349 349 349 347 346 344 342 341 340 339 338 336 335 333 331 329 327 327 326 325 326 327 322 320 321 323 325 324 321 319 318 316 314 313 312 312 311 309 306 305 304
117 118 117 114 111 107 102 97 91 88 87 87 84 78 71 62 55 47 40 36 34 30 25 25 24 22 20 18 17 17 17 15 15 13 11 9 7 6 4 3 3 3 2 1 359 356 353 351 351 350 348 347 345 343 342 341 340 339 337 336 334 331 330 329 328 328 327 329 328 324 322 321 322 324 322 318 318 317 315 314 314 313 312 310 307 306 306 306
119 118 115 111 107 102 98 93 89 88 87 86 81 73 66 57 48 41 37 33 31 29 26 25 25 24 24 24 22 21 19 17 16 15 13 12 11 9 8 6 5 5 4 3 2 358 353 351 351 350 348 348 345 343 342 341 340 338 337 336 334 332 331 330 330 328 328 332 330 325 323 320 320 322 319 317 317 315 314 314 313 313 311 309 308 307 307 308
119 115 111 107 103 98 93 89 88 87 85 83 76 67 60 52 42 36 34 32 31 31 30 30 29 28 27 28 25 23 21 18 18 17 14 13 12 11 9 7 6 5 5 5 5 1 354 351 350 349 348 346 345 343 342 341 339 338 337 334 333 334 333 333 333 330 330 334 331 326 324 321 320 322 319 317 316 314 314 314 313 312 310 308 307 307 308 310
116 111 107 102 98 94 89 87 86 84 81 76 68 59 52 46 39 33 32 33 33 34 34 34 34 33 32 31 28 25 22 20 19 19 17 15 14 12 10 8 5 3 2 2 3 3 356 350 348 347 347 346 344 344 343 341 340 338 337 334 332 333 333 334 334 332 334 335 333 329 326 323 322 322 319 317 316 315 315 314 313 312 309 308 309 310 311 312
113 108 104 99 94 90 87 86 82 78 76 69 59 51 45 42 38 36 36 37 38 38 38 39 38 36 33 31 29 26 24 21 20 19 17 15 14 12 9 7 4 1 360 358 358 1 357 350 348 347 347 345 343 344 344 343 341 340 338 336 333 330 329 331 332 332 334 336 337 333 327 325 324 321 318 318 317 316 316 315 313 311 310 311 312 312 313 313
109 105 100 95 91 88 86 82 76 72 69 63 54 46 44 42 41 43 44 44 44 43 42 41 40 36 33 31 29 27 24 22 20 18 17 15 12 11 8 6 3 0 358 356 355 358 359 353 349 348 348 346 344 344 344 343 343 342 340 337 333 329 327 328 329 330 330 333 339 338 329 326 324 321 320 320 319 318 317 315 313 312 313 312 311 311 312 312
105 101 96 93 90 86 81 76 71 68 63 57 51 47 47 48 48 49 50 49 49 47 43 39 37 35 32 30 28 26 23 22 20 17 15 13 10 8 6 4 2 359 357 356 354 355 359 357 351 350 349 346 346 346 345 344 343 343 341 337 333 331 328 328 330 331 328 328 336 339 333 328 323 321 323 321 320 318 315 313 313 314 314 312 310 311 311 311
102 98 95 91 87 81 76 74 71 65 58 55 53 52 52 55 55 53 53 52 50 47 43 38 35 33 31 29 26 24 21 20 18 16 13 10 8 6 4 3 1 359 358 357 355 354 357 359 354 350 350 348 347 347 346 344 343 342 341 337 334 333 331 329 330 333 329 326 333 337 333 329 323 323 325 322 318 315 313 314 315 315 315 313 311 311 311 311
101 98 94 88 83 79 76 73 69 63 58 57 58 58 59 59 59 56 54 52 49 45 42 38 34 32 31 28 25 23 20 17 15 13 11 9 7 5 4 3 1 0 359 358 356 354 355 359 357 352 351 349 348 349 347 346 344 343 341 337 334 335 335 331 329 331 330 327 331 335 332 327 325 324 325 322 318 316 316 317 317 317 316 313 312 312 312 312
100 95 90 85 81 79 76 71 67 63 61 61 63 62 62 61 60 57 54 51 47 43 40 37 33 31 29 26 24 21 18 16 13 11 9 8 6 5 4 3 2 1 360 358 358 356 354 357 359 354 352 351 350 350 349 347 346 344 342 339 336 335 335 333 331 330 329 326 329 333 331 327 326 327 326 323 320 318 319 319 319 318 316 313 313 313 313 313
96 90 87 86 82 78 74 68 66 66 63 63 64 63 61 60 59 56 52 48 45 41 38 35 32 29 26 23 21 18 15 14 11 9 8 7 6 5 4 3 2 1 1 359 358 357 354 356 359 357 354 352 351 350 350 349 348 346 344 341 338 335 333 335 336 333 328 325 326 329 330 327 327 329 327 322 319 319 321 322 321 318 316 315 314 314 313 313
95 89 87 86 81 76 73 68 67 67 65 63 63 61 59 58 56 53 49 45 42 39 36 33 30 27 25 21 19 16 13 12 10 9 8 7 6 6 4 3 2 1 1 0 359 358 356 356 358 358 355 353 352 351 350 350 349 347 346 343 338 336 334 335 340 338 329 326 327 327 328 329 328 328 325 320 320 323 323 322 320 318 316 315 314 314 314 314
94 89 88 85 78 74 74 71 67 65 63 60 59 59 57 55 53 50 47 43 40 37 34 31 28 25 23 20 17 15 13 11 10 9 8 7 6 6 5 3 2 1 1 1 360 358 357 356 356 357 356 355 354 352 351 351 350 348 347 344 340 338 336 334 339 340 331 329 330 324 325 331 331 326 322 321 323 325 323 321 319 317 316 315 315 315 315 315
94 90 89 87 80 74 73 70 63 60 59 56 55 55 53 51 49 47 44 41 38 34 31 28 25 22 20 18 16 14 13 11 10 9 8 7 6 6 5 3 2 1 0 360 359 358 357 356 356 355 355 355 355 353 351 351 351 350 348 346 343 341 339 335 336 338 333 332 331 323 324 332 331 324 322 324 324 323 321 319 317 316 315 315 315 315 315 315
93 91 90 87 83 76 69 63 59 56 55 53 52 51 50 48 46 44 42 39 35 32 29 26 22 19 17 15 14 13 12 11 10 9 8 7 7 6 4 3 2 1 359 359 358 358 356 355 355 354 353 354 354 352 351 352 352 352 350 348 345 343 341 338 337 336 334 334 330 323 327 331 328 324 324 323 321 319 317 316 315 315 315 315 315 314 315 316
95 92 87 83 81 75 65 57 54 54 52 51 49 47 47 46 44 43 39 36 33 30 27 24 20 17 15 14 13 12 12 11 10 9 8 7 6 6 4 2 1 0 359 358 357 357 356 356 355 353 351 353 354 353 352 353 353 353 352 350 347 345 342 340 339 336 335 336 329 324 328 330 327 325 323 319 318 317 316 316 316 317 316 316 316 317 317 318
94 89 83 78 74 70 63 54 52 54 50 48 47 45 45 44 42 40 37 34 31 27 24 22 18 17 15 14 13 12 11 10 9 8 8 7 6 5 4 2 1 360 359 357 357 357 356 356 356 356 353 353 355 354 353 354 354 354 353 351 349 347 343 341 340 337 335 335 333 328 327 327 328 326 321 319 319 319 319 319 319 319 319 319 319 319 319 319
90 84 78 73 68 64 61 55 52 51 48 46 45 43 43 42 39 37 33 31 28 24 21 19 17 16 15 14 13 12 11 10 9 8 8 7 6 5 3 2 0 359 358 357 357 356 356 356 357 357 355 354 355 355 353 353 354 354 353 353 351 349 346 343 341 338 335 334 336 334 327 326 329 327 322 322 323 322 321 321 321 321 321 321 320 320 320 320
85 79 73 69 65 62 59 54 50 47 45 44 42 41 40 39 36 32 29 27 24 21 19 17 16 15 15 14 13 12 11 9 8 8 7 7 6 4 3 2 0 359 358 357 357 356 355 355 356 358 356 354 355 355 353 353 354 353 353 353 351 350 348 346 343 341 337 333 336 336 330 328 330 327 324 325 325 323 323 324 324 323 322 321 320 320 321 322
81 75 71 67 65 60 55 50 46 43 42 41 40 38 37 35 32 28 26 23 21 19 17 16 15 14 13 13 12 12 11 10 9 8 7 6 6 4 3 2 0 359 358 357 357 356 355 354 355 357 356 355 355 355 354 354 354 354 353 352 352 350 349 348 346 343 339 335 334 335 333 331 330 327 326 327 326 325 325 325 324 323 321 321 321 323 324 324
80 74 68 64 62 57 49 44 41 39 39 39 36 35 33 30 28 25 22 20 18 17 15 15 14 13 13 13 11 10 10 9 8 8 6 5 5 4 3 2 0 359 358 358 357 356 356 354 354 355 357 355 355 355 354 354 355 355 354 353 352 351 350 349 348 345 341 338 336 334 333 332 331 329 328 328 327 326 325 325 324 323 323 324 325 326 326 325
77 72 66 60 58 53 44 39 37 36 36 35 33 31 29 26 24 22 20 18 16 15 14 13 13 13 12 12 11 10 9 8 7 7 6 5 5 4 3 2 1 360 359 358 357 356 355 355 353 354 356 355 354 355 355 354 355 355 355 354 354 353 351 351 350 347 343 340 338 336 334 334 333 331 330 329 327 326 326 326 326 326 326 327 328 328 327 327
70 66 61 56 52 47 40 35 32 32 32 31 29 27 24 22 20 19 17 16 14 13 13 12 12 12 11 11 10 10 9 8 7 6 5 5 4 4 3 3 1 360 359 358 357 356 355 355 354 353 355 355 354 355 356 355 355 355 354 355 355 355 353 352 351 348 343 339 339 338 337 336 335 333 331 330 328 327 329 331 330 329 329 329 329 329 330 329
64 59 55 51 47 41 36 31 29 28 27 26 25 22 20 19 17 16 15 14 13 12 11 11 11 11 11 10 9 9 8 8 7 6 5 4 4 4 3 3 1 360 359 358 357 356 355 354 354 353 354 355 355 355 356 356 355 356 356 356 356 356 355 354 352 350 345 340 339 339 338 337 335 333 331 331 331 331 333 334 333 331 331 331 331 331 331 329
Height
5799 5801 5802 5803 5804 5806 5807 5808 5808 5809 5810 5810 5811 5811 5812 5812 5812 5812 5812 5812 5812 5812 5812 5812 5812 5811 5810 5809 5809 5808 5806 5805 5804 5804 5803 5802 5801 5800 5799 5798 5797 5796 5796 5795 5794 5793 5791 5790 5788 5787 5786 5784 5783 5782 5781 5780 5779 5778 5776 5775 5773 5772 5770 5769 5767 5766 5765 5764 5763 5761 5760 5759 5758 5756 5754 5753 5751 5748 5746 5744 5742 5740 5738 5736 5734 5732 5730 5728
5799 5800 5802 5803 5805 5806 5807 5808 5809 5809 5810 5810 5811 5811 5811 5812 5812 5812 5812 5812 5812 5812 5812 5811 5811 5810 5809 5808 5807 5806 5806 5805 5804 5803 5803 5802 5801 5800 5799 5798 5797 5796 5795 5794 5793 5792 5790 5789 5787 5786 5784 5783 5782 5781 5780 5779 5778 5776 5775 5773 5772 5770 5769 5767 5766 5765 5764 5763 5761 5758 5757 5756 5755 5754 5752 5750 5748 5745 5743 5741 5739 5737 5735 5733 5731 5729 5727 5725
5799 5800 5802 5804 5805 5806 5807 5808 5809 5809 5810 5810 5811 5811 5811 5812 5812 5812 5812 5812 5812 5812 5811 5811 5810 5809 5808 5807 5806 5806 5805 5804 5804 5803 5802 5801 5800 5800 5799 5798 5797 5796 5795 5793 5792 5790 5789 5787 5786 5785 5783 5782 5781 5780 5779 5777 5776 5775 5773 5772 5770 5769 5767 5766 5765 5763 5762 5761 5759 5756 5754 5753 5752 5751 5748 5746 5744 5742 5740 5737 5736 5733 5732 5730 5728 5726 5723 5721
5799 5800 5802 5803 5805 5806 5807 5808 5809 5809 5810 5810 5811 5811 5811 5812 5812 5812 5812 5812 5811 5811 5810 5810 5809 5808 5807 5806 5806 5805 5805 5804 5803 5803 5802 5801 5800 5799 5798 5797 5796 5795 5794 5792 5791 5789 5788 5787 5785 5784 5782 5781 5780 5779 5777 5776 5775 5773 5772 5770 5769 5767 5766 5765 5763 5762 5760 5758 5756 5754 5752 5750 5748 5747 5745 5742 5740 5738 5736 5734 5732 5730 5728 5726 5724 5722 5719 5716
5799 5800 5802 5803 5805 5806 5807 5808 5809 5809 5810 5810 5811 5811 5811 5812 5812 5812 5812 5811 5811 5810 5809 5809 5808 5807 5807 5806 5806 5805 5804 5804 5803 5802 5801 5801 5800 5799 5798 5796 5795 5794 5792 5791 5790 5788 5787 5785 5784 5783 5782 5780 5779 5777 5776 5775 5773 5772 5770 5769 5768 5766 5765 5763 5761 5760 5758 5756 5754 5751 5749 5747 5745 5743 5741 5738 5736 5734 5732 5730 5728 5726 5724 5721 5719 5717 5714 5711
5799 5800 5802 5803 5805 5806 5807 5808 5809 5809 5810 5811 5811 5811 5811 5812 5812 5812 5811 5811 5810 5810 5809 5808 5808 5807 5807 5806 5806 5805 5804 5804 5803 5802 5801 5800 5799 5798 5797 5796 5794 5793 5791 5790 5788 5787 5785 5784 5783 5782 5780 5779 5778 5776 5775 5773 5772 5770 5769 5767 5766 5764 5763 5761 5759 5757 5756 5753 5751 5748 5746 5744 5741 5739 5737 5735 5732 5730 5729 5727 5724 5722 5719 5717 5714 5712 5709 5706
5799 5800 5802 5803 5804 5806 5807 5808 5809 5810 5810 5811 5811 5811 5812 5812 5812 5811 5811 5810 5810 5809 5809 5808 5808 5807 5807 5806 5806 5805 5804 5803 5802 5802 5801 5800 5799 5797 5796 5795 5793 5791 5790 5789 5787 5786 5785 5783 5782 5780 5779 5778 5777 5775 5774 5772 5770 5769 5767 5766 5764 5762 5760 5758 5756 5755 5753 5750 5748 5746 5743 5741 5738 5736 5733 5731 5729 5727 5725 5723 5720 5718 5715 5713 5710 5707 5704 5701
5799 5800 5801 5803 5805 5806 5807 5808 5809 5810 5810 5811 5811 5811 5812 5812 5811 5811 5811 5810 5810 5810 5809 5808 5808 5807 5807 5806 5805 5805 5803 5803 5802 5802 5801 5800 5798 5797 5795 5794 5792 5791 5789 5788 5787 5785 5784 5782 5781 5780 5778 5777 5776 5774 5772 5770 5769 5767 5765 5763 5762 5760 5758 5756 5754 5752 5750 5747 5745 5743 5740 5738 5735 5733 5730 5727 5725 5723 5721 5718 5716 5713 5711 5708 5705 5702 5699 5696
5798 5799 5801 5803 5805 5806 5807 5809 5809 5810 5810 5811 5811 5812 5812 5811 5811 5811 5811 5810 5810 5809 5809 5808 5808 5807 5807 5806 5805 5804 5804 5803 5803 5801 5800 5799 5798 5797 5795 5793 5792 5790 5789 5787 5786 5784 5783 5782 5781 5779 5778 5776 5775 5773 5771 5769 5767 5765 5763 5761 5759 5757 5755 5753 5751 5749 5747 5744 5742 5740 5738 5735 5733 5730 5728 5724 5722 5719 5716 5714 5711 5708 5705 5703 5699 5696 5693 5690
5798 5799 5801 5803 5805 5806 5808 5809 5809 5810 5810 5811 5812 5812 5812 5811 5811 5811 5810 5810 5810 5809 5809 5808 5808 5807 5807 5806 5805 5805 5804 5803 5802 5801 5800 5799 5797 5796 5794 5793 5791 5790 5788 5787 5786 5784 5783 5781 5780 5778 5777 5775 5773 5771 5769 5767 5765 5763 5761 5759 5757 5754 5752 5750 5747 5745 5744 5741 5739 5737 5735 5732 5730 5727 5724 5721 5718 5715 5712 5709 5706 5703 5700 5697 5694 5690 5687 5684
5798 5799 5802 5804 5805 5807 5808 5808 5809 5810 5811 5812 5812 5812 5811 5811 5811 5811 5810 5810 5810 5809 5809 5808 5808 5807 5807 5806 5805 5805 5804 5803 5802 5801 5800 5798 5797 5796 5794 5792 5791 5789 5788 5786 5785 5783 5782 5780 5779 5777 5775 5773 5771 5769 5767 5765 5763 5760 5758 5756 5754 5752 5749 5747 5744 5742 5740 5738 5735 5733 5731 5729 5726 5723 5720 5717 5714 5710 5707 5704 5701 5698 5694 5690 5687 5684 5681 5677
5798 5800 5802 5804 5805 5807 5808 5809 5810 5811 5811 5811 5811 5811 5811 5811 5811 5811 5810 5810 5810 5810 5809 5809 5808 5807 5807 5806 5806 5805 5804 5803 5802 5801 5799 5798 5797 5795 5794 5792 5790 5789 5787 5786 5784 5782 5781 5779 5777 5775 5773 5772 5769 5767 5765 5762 5760 5758 5756 5753 5751 5749 5746 5744 5741 5738 5736 5733 5731 5728 5727 5725 5722 5719 5715 5712 5709 5705 5702 5699 5695 5692 5688 5684 5681 5677 5673 5669
5798 5800 5802 5804 5806 5807 5808 5809 5810 5811 5811 5811 5811 5811 5811 5811 5811 5811 5811 5811 5810 5810 5809 5809 5808 5808 5807 5806 5806 5805 5804 5803 5801 5800 5799 5797 5796 5794 5793 5791 5789 5788 5786 5785 5783 5781 5779 5777 5776 5773 5771 5769 5767 5765 5762 5760 5758 5755 5753 5750 5748 5745 5742 5740 5737 5734 5732 5729 5727 5723 5722 5721 5717 5713 5711 5707 5704 5700 5697 5693 5689 5686 5682 5678 5675 5671 5666 5662
5799 5801 5803 5804 5806 5807 5808 5809 5810 5810 5811 5811 5811 5812 5812 5812 5812 5811 5811 5811 5811 5810 5810 5809 5809 5808 5808 5807 5806 5805 5804 5802 5801 5800 5799 5797 5795 5793 5792 5790 5789 5787 5786 5784 5782 5780 5778 5775 5773 5771 5769 5767 5765 5762 5760 5758 5755 5753 5750 5748 5745 5741 5738 5736 5733 5730 5727 5725 5722 5718 5716 5716 5712 5707 5705 5702 5698 5694 5690 5686 5682 5679 5675 5671 5668 5663 5659 5655
5800 5802 5803 5805 5806 5807 5808 5809 5809 5810 5811 5811 5812 5812 5812 5812 5812 5812 5812 5812 5811 5811 5810 5810 5809 5809 5808 5807 5806 5805 5803 5802 5801 5799 5798 5796 5794 5792 5791 5789 5788 5786 5784 5782 5780 5778 5776 5774 5771 5770 5767 5765 5763 5760 5758 5755 5753 5750 5747 5745 5742 5738 5735 5732 5728 5726 5723 5719 5716 5712 5709 5709 5705 5701 5699 5696 5692 5688 5684 5680 5675 5672 5668 5664 5661 5657 5652 5648
5801 5803 5804 5805 5806 5807 5808 5809 5810 5810 5811 5812 5812 5812 5813 5813 5813 5813 5812 5812 5812 5811 5811 5811 5810 5809 5808 5807 5806 5805 5803 5802 5800 5798 5797 5795 5793 5791 5790 5788 5786 5785 5783 5781 5778 5776 5774 5772 5770 5768 5765 5763 5761 5758 5756 5753 5751 5748 5745 5742 5738 5735 5732 5728 5724 5721 5719 5715 5711 5707 5703 5702 5698 5694 5692 5689 5685 5682 5678 5673 5668 5665 5661 5657 5653 5650 5645 5641
5802 5803 5804 5806 5807 5808 5808 5809 5810 5811 5812 5812 5813 5813 5813 5813 5813 5813 5813 5813 5812 5812 5812 5811 5810 5809 5808 5807 5806 5804 5803 5801 5799 5798 5796 5794 5792 5791 5789 5787 5785 5783 5781 5779 5776 5774 5772 5770 5768 5766 5764 5761 5759 5757 5754 5751 5749 5745 5742 5739 5735 5732 5729 5726 5722 5718 5715 5712 5708 5703 5698 5695 5692 5687 5685 5681 5678 5675 5670 5666 5661 5657 5654 5650 5646 5642 5637 5632
5802 5804 5805 5806 5807 5808 5809 5810 5811 5812 5812 5813 5813 5813 5814 5814 5814 5814 5814 5814 5813 5813 5812 5811 5810 5809 5808 5807 5805 5804 5802 5800 5799 5797 5795 5793 5792 5790 5788 5786 5784 5782 5780 5777 5775 5773 5771 5769 5767 5764 5762 5759 5757 5755 5752 5748 5745 5742 5739 5736 5733 5731 5727 5723 5719 5715 5712 5708 5705 5701 5695 5691 5687 5681 5677 5674 5670 5666 5662 5658 5653 5649 5645 5641 5637 5633 5628 5623
5803 5804 5805 5806 5807 5809 5810 5811 5812 5812 5813 5813 5814 5814 5814 5815 5815 5815 5815 5815 5814 5813 5812 5811 5810 5809 5808 5806 5804 5803 5802 5800 5798 5797 5795 5793 5791 5790 5788 5786 5784 5782 5779 5777 5775 5773 5771 5768 5766 5763 5760 5758 5755 5752 5749 5746 5743 5740 5737 5734 5731 5728 5724 5720 5715 5711 5707 5705 5702 5697 5691 5687 5683 5676 5670 5667 5663 5659 5655 5650 5646 5642 5637 5633 5629 5624 5620 5614
5803 5804 5806 5807 5808 5810 5811 5812 5812 5813 5814 5814 5814 5814 5815 5816 5816 5816 5816 5815 5814 5813 5812 5811 5810 5809 5807 5806 5804 5803 5802 5800 5798 5797 5795 5793 5791 5789 5788 5786 5784 5781 5779 5777 5775 5772 5770 5767 5765 5762 5759 5757 5754 5751 5748 5744 5741 5738 5734 5731 5727 5723 5721 5717 5712 5707 5703 5700 5698 5693 5686 5683 5678 5671 5665 5660 5656 5652 5648 5643 5639 5635 5630 5626 5621 5616 5611 5605
5804 5805 5807 5808 5810 5811 5812 5812 5813 5814 5814 5815 5815 5815 5816 5817 5817 5817 5815 5814 5813 5813 5812 5811 5810 5809 5807 5806 5805 5803 5802 5800 5799 5797 5795 5793 5791 5789 5788 5786 5784 5781 5779 5777 5774 5771 5769 5766 5764 5761 5758 5755 5752 5749 5745 5742 5738 5735 5731 5728 5724 5720 5717 5714 5708 5703 5699 5696 5693 5687 5681 5678 5673 5667 5661 5655 5650 5646 5641 5637 5632 5628 5623 5618 5613 5607 5602 5597
5805 5806 5808 5809 5811 5812 5812 5813 5814 5815 5815 5816 5817 5817 5818 5818 5818 5816 5815 5814 5814 5813 5812 5812 5810 5809 5808 5807 5805 5804 5802 5801 5799 5797 5795 5793 5791 5789 5787 5785 5783 5781 5778 5776 5773 5770 5768 5765 5762 5759 5756 5753 5749 5746 5743 5739 5735 5732 5728 5724 5720 5716 5713 5711 5706 5700 5695 5690 5687 5682 5676 5672 5669 5663 5657 5651 5646 5640 5635 5630 5625 5621 5616 5610 5605 5600 5595 5590
5806 5808 5809 5810 5811 5812 5813 5814 5815 5816 5817 5817 5818 5819 5818 5818 5817 5817 5816 5815 5815 5814 5813 5812 5811 5810 5809 5807 5806 5804 5802 5801 5799 5797 5795 5793 5791 5789 5787 5784 5782 5780 5777 5774 5772 5769 5766 5763 5760 5757 5754 5751 5747 5744 5740 5737 5732 5728 5725 5720 5716 5712 5707 5705 5702 5697 5691 5684 5680 5675 5670 5666 5662 5658 5653 5646 5640 5634 5628 5623 5618 5613 5607 5602 5598 5592 5587 5581
5808 5809 5810 5811 5812 5813 5814 5815 5817 5817 5818 5819 5819 5819 5819 5818 5818 5817 5817 5816 5815 5815 5814 5813 5811 5810 5809 5807 5805 5804 5802 5800 5799 5797 5794 5793 5791 5789 5786 5784 5781 5778 5776 5773 5770 5767 5764 5761 5758 5755 5752 5749 5745 5741 5737 5734 5730 5725 5721 5716 5712 5708 5703 5698 5694 5690 5687 5681 5674 5667 5663 5660 5654 5649 5645 5639 5633 5627 5620 5615 5609 5604 5600 5595 5590 5585 5579 5573
5809 5810 5811 5812 5813 5814 5816 5817 5818 5819 5820 5820 5820 5820 5819 5819 5818 5818 5817 5816 5816 5815 5814 5813 5812 5810 5809 5807 5805 5804 5802 5800 5798 5796 5794 5792 5790 5788 5786 5783 5781 5778 5775 5772 5769 5766 5762 5759 5756 5753 5750 5746 5742 5739 5734 5730 5727 5722 5718 5713 5708 5704 5699 5694 5688 5682 5679 5676 5669 5660 5654 5652 5648 5642 5637 5632 5625 5619 5612 5608 5602 5597 5592 5588 5582 5576 5569 5563
5810 5811 5813 5814 5815 5816 5817 5819 5820 5820 5821 5821 5821 5820 5820 5820 5819 5818 5818 5817 5816 5815 5814 5813 5811 5810 5808 5807 5805 5804 5802 5800 5798 5796 5794 5792 5789 5787 5784 5782 5779 5777 5774 5770 5767 5764 5760 5757 5753 5750 5746 5743 5739 5735 5731 5726 5722 5718 5714 5709 5704 5699 5694 5689 5684 5678 5672 5668 5664 5656 5646 5642 5640 5635 5629 5623 5617 5612 5607 5601 5596 5590 5584 5578 5572 5566 5561 5555
5812 5813 5814 5815 5817 5818 5819 5820 5821 5822 5822 5822 5821 5821 5821 5820 5820 5819 5819 5818 5817 5815 5814 5813 5811 5810 5808 5807 5805 5804 5802 5800 5798 5795 5793 5791 5788 5786 5783 5780 5778 5775 5772 5769 5765 5761 5758 5754 5751 5747 5743 5739 5735 5731 5727 5723 5718 5714 5709 5704 5700 5695 5689 5684 5679 5674 5668 5663 5659 5653 5643 5635 5632 5627 5622 5616 5609 5605 5601 5594 5588 5582 5575 5569 5563 5558 5553 5548
5813 5815 5816 5818 5819 5820 5821 5822 5822 5823 5822 5822 5822 5822 5821 5821 5821 5820 5819 5818 5817 5816 5814 5813 5812 5810 5809 5807 5806 5804 5802 5799 5797 5795 5793 5790 5787 5784 5782 5779 5776 5773 5770 5767 5763 5759 5755 5752 5748 5744 5740 5736 5732 5727 5723 5719 5714 5710 5705 5700 5695 5690 5685 5680 5674 5670 5664 5658 5654 5647 5637 5630 5625 5621 5614 5608 5604 5598 5592 5585 5579 5573 5567 5561 5555 5551 5545 5539
5815 5817 5818 5819 5820 5821 5822 5823 5823 5823 5823 5823 5823 5822 5822 5822 5821 5820 5819 5818 5817 5815 5814 5813 5812 5810 5809 5807 5805 5803 5801 5799 5796 5794 5792 5789 5787 5784 5781 5777 5774 5771 5768 5765 5761 5757 5752 5749 5745 5742 5738 5733 5729 5724 5719 5715 5710 5706 5701 5697 5691 5685 5680 5674 5669 5665 5660 5654 5649 5641 5632 5624 5620 5619 5611 5601 5597 5591 5584 5577 5570 5564 5559 5553 5548 5542 5536 5529
5817 5819 5820 5821 5822 5823 5823 5824 5824 5824 5824 5824 5823 5823 5823 5822 5822 5821 5820 5819 5817 5816 5814 5813 5811 5810 5809 5807 5805 5802 5800 5798 5796 5793 5790 5788 5785 5782 5779 5776 5772 5769 5766 5763 5759 5754 5750 5746 5743 5739 5735 5730 5726 5721 5716 5711 5706 5701 5697 5693 5689 5683 5678 5672 5666 5661 5656 5651 5645 5636 5629 5620 5614 5615 5609 5598 5592 5585 5578 5571 5563 5556 5551 5544 5539 5533 5526 5520
5819 5821 5822 5823 5823 5824 5824 5825 5824 5824 5824 5824 5824 5824 5823 5823 5822 5821 5820 5819 5817 5816 5815 5813 5812 5810 5808 5806 5804 5802 5800 5797 5795 5792 5789 5787 5784 5781 5777 5774 5771 5768 5765 5762 5758 5753 5748 5744 5740 5736 5732 5727 5723 5718 5713 5707 5701 5696 5691 5686 5682 5679 5675 5670 5664 5658 5651 5647 5641 5633 5625 5616 5608 5604 5600 5593 5587 5579 5573 5565 5557 5550 5544 5538 5532 5525 5518 5511
5821 5823 5824 5824 5825 5825 5825 5825 5825 5825 5825 5825 5825 5824 5824 5823 5822 5821 5820 5819 5817 5816 5815 5814 5812 5810 5808 5806 5804 5801 5799 5797 5794 5792 5789 5787 5784 5781 5777 5774 5770 5767 5764 5761 5758 5754 5748 5742 5738 5734 5729 5724 5719 5715 5710 5704 5698 5692 5686 5679 5672 5667 5665 5661 5657 5652 5646 5640 5636 5628 5620 5612 5605 5598 5592 5586 5579 5571 5565 5558 5550 5544 5537 5531 5524 5516 5508 5502
5823 5824 5825 5825 5826 5826 5826 5826 5826 5826 5826 5825 5825 5825 5824 5823 5823 5822 5820 5819 5818 5817 5815 5814 5812 5810 5808 5805 5803 5801 5799 5796 5794 5791 5788 5785 5782 5779 5775 5772 5768 5764 5761 5757 5754 5752 5748 5741 5736 5731 5726 5721 5715 5711 5706 5701 5695 5688 5682 5674 5666 5658 5652 5648 5644 5640 5636 5632 5629 5621 5611 5604 5599 5592 5585 5579 5571 5562 5555 5548 5541 5536 5529 5522 5514 5506 5499 5492
5825 5826 5826 5826 5827 5827 5827 5827 5827 5827 5826 5826 5826 5825 5825 5824 5823 5822 5821 5819 5818 5817 5816 5814 5812 5810 5807 5805 5803 5801 5799 5796 5793 5790 5787 5783 5780 5777 5773 5770 5766 5762 5759 5755 5750 5748 5744 5738 5732 5727 5722 5716 5711 5705 5699 5694 5690 5684 5677 5670 5662 5654 5646 5639 5634 5629 5623 5620 5620 5616 5604 5595 5589 5583 5577 5571 5563 5554 5546 5539 5533 5527 5521 5514 5505 5498 5490 5482
5826 5827 5827 5827 5828 5828 5828 5828 5827 5827 5827 5827 5826 5826 5825 5824 5823 5822 5821 5820 5818 5817 5815 5813 5811 5809 5807 5805 5803 5800 5798 5795 5792 5789 5785 5782 5779 5776 5773 5769 5765 5761 5757 5753 5748 5744 5741 5735 5729 5723 5718 5712 5707 5702 5695 5690 5684 5679 5673 5666 5659 5652 5644 5636 5631 5625 5616 5608 5609 5609 5600 5590 5582 5575 5570 5563 5555 5548 5539 5532 5526 5520 5513 5506 5498 5490 5481 5473
5827 5828 5828 5828 5829 5829 5829 5829 5828 5828 5828 5827 5827 5826 5825 5824 5823 5822 5821 5820 5818 5817 5815 5813 5811 5809 5806 5804 5802 5799 5797 5794 5791 5788 5785 5782 5778 5775 5772 5768 5764 5760 5755 5751 5745 5741 5738 5734 5727 5721 5715 5709 5703 5698 5692 5685 5679 5673 5668 5662 5655 5648 5641 5632 5626 5623 5615 5603 5599 5599 5593 5585 5577 5569 5564 5558 5549 5542 5534 5526 5520 5513 5506 5499 5491 5482 5473 5464
5829 5829 5829 5829 5830 5830 5830 5829 5829 5829 5828 5828 5827 5827 5826 5825 5824 5823 5821 5820 5818 5816 5815 5813 5811 5809 5806 5804 5801 5798 5796 5793 5790 5787 5784 5781 5778 5774 5771 5766 5762 5758 5753 5749 5744 5738 5734 5732 5726 5719 5713 5707 5700 5695 5689 5682 5676 5670 5663 5657 5650 5644 5637 5627 5617 5613 5608 5597 5590 5588 5582 5574 5569 5562 5555 5549 5540 5532 5526 5519 5512 5505 5498 5491 5483 5475 5465 5455
5830 5830 5830 5830 5830 5830 5830 5830 5830 5829 5829 5829 5828 5827 5826 5825 5824 5823 5821 5820 5818 5816 5815 5813 5811 5809 5806 5804 5801 5798 5795 5792 5789 5787 5784 5780 5777 5773 5769 5765 5761 5756 5752 5747 5742 5736 5730 5728 5724 5717 5710 5704 5697 5691 5686 5680 5673 5666 5659 5652 5644 5636 5631 5623 5612 5603 5596 5585 5577 5576 5572 5564 5559 5554 5545 5536 5529 5522 5517 5511 5502 5495 5488 5480 5472 5463 5454 5445
5831 5831 5831 5831 5831 5831 5831 5831 5830 5830 5830 5829 5828 5827 5827 5825 5824 5823 5821 5820 5818 5816 5815 5812 5810 5808 5805 5803 5800 5798 5795 5792 5789 5786 5783 5779 5775 5771 5767 5763 5759 5754 5750 5745 5739 5734 5727 5722 5719 5713 5706 5700 5694 5688 5682 5676 5669 5662 5655 5647 5639 5632 5625 5619 5612 5602 5591 5579 5568 5562 5559 5552 5547 5543 5536 5526 5519 5513 5507 5500 5492 5484 5477 5468 5459 5450 5441 5433
5832 5832 5832 5832 5832 5832 5832 5831 5831 5831 5830 5829 5829 5828 5827 5825 5824 5823 5821 5820 5818 5816 5814 5812 5810 5808 5805 5802 5800 5797 5794 5791 5788 5785 5781 5778 5774 5770 5766 5761 5757 5752 5748 5743 5737 5732 5726 5720 5715 5711 5704 5697 5690 5683 5676 5670 5664 5658 5651 5643 5635 5628 5621 5614 5610 5603 5592 5580 5567 5555 5547 5544 5541 5535 5528 5519 5510 5504 5497 5490 5483 5475 5467 5459 5449 5440 5430 5421
5833 5833 5833 5833 5833 5833 5832 5832 5832 5831 5830 5830 5829 5828 5827 5826 5825 5823 5821 5820 5818 5816 5814 5812 5809 5807 5804 5802 5799 5796 5793 5790 5787 5784 5780 5776 5772 5768 5764 5759 5755 5750 5745 5741 5735 5730 5724 5717 5712 5707 5702 5695 5688 5681 5674 5668 5661 5653 5647 5640 5631 5623 5615 5606 5600 5596 5588 5577 5569 5556 5543 5540 5540 5531 5521 5513 5503 5495 5489 5482 5476 5467 5458 5450 5440 5430 5420 5410
5834 5833 5834 5834 5834 5834 5833 5832 5832 5831 5831 5830 5829 5828 5827 5826 5825 5823 5821 5820 5818 5816 5813 5811 5809 5806 5804 5801 5798 5796 5792 5789 5786 5783 5779 5775 5771 5767 5763 5758 5753 5749 5743 5738 5733 5728 5722 5716 5710 5704 5698 5692 5685 5678 5671 5665 5659 5651 5643 5635 5627 5619 5611 5601 5591 5586 5580 5573 5568 5557 5541 5536 5535 5526 5515 5507 5498 5491 5484 5476 5469 5461 5452 5442 5432 5421 5412 5403
5834 5834 5835 5834 5834 5834 5834 5833 5833 5832 5831 5831 5830 5829 5827 5826 5825 5823 5821 5819 5817 5815 5813 5810 5808 5805 5803 5800 5797 5795 5792 5788 5785 5782 5778 5774 5770 5766 5761 5757 5752 5747 5741 5736 5731 5725 5719 5714 5708 5703 5699 5695 5688 5679 5670 5662 5654 5647 5640 5632 5623 5615 5609 5602 5592 5583 5575 5568 5561 5551 5538 5532 5530 5521 5512 5504 5496 5489 5482 5472 5463 5453 5444 5434 5423 5413 5403 5394
5835 5836 5836 5835 5835 5834 5834 5834 5833 5832 5832 5831 5830 5829 5828 5826 5824 5823 5821 5819 5817 5815 5812 5810 5807 5805 5802 5799 5796 5793 5791 5788 5784 5781 5777 5773 5769 5765 5760 5755 5750 5745 5740 5734 5728 5722 5715 5709 5702 5696 5691 5689 5684 5676 5668 5660 5651 5643 5636 5628 5620 5612 5605 5598 5591 5582 5572 5565 5557 5544 5532 5528 5526 5518 5508 5500 5491 5484 5476 5465 5454 5443 5432 5422 5412 5402 5392 5383
5836 5837 5836 5836 5836 5834 5834 5835 5834 5833 5832 5831 5830 5829 5827 5826 5824 5822 5820 5818 5816 5814 5812 5809 5807 5804 5802 5799 5796 5793 5790 5786 5783 5779 5776 5772 5768 5764 5759 5754 5749 5744 5738 5732 5726 5720 5713 5706 5699 5689 5680 5673 5667 5661 5655 5651 5646 5639 5633 5626 5618 5610 5601 5593 5586 5577 5567 5558 5551 5540 5526 5519 5519 5514 5502 5491 5482 5473 5464 5454 5444 5433 5421 5410 5399 5390 5381 5372
5837 5838 5837 5837 5836 5835 5835 5835 5835 5834 5833 5831 5830 5829 5827 5825 5824 5822 5820 5818 5816 5814 5811 5809 5806 5804 5801 5798 5795 5792 5789 5785 5782 5778 5774 5770 5766 5762 5758 5753 5747 5742 5736 5730 5724 5718 5711 5705 5698 5690 5680 5671 5665 5659 5651 5644 5639 5634 5628 5622 5615 5607 5598 5589 5580 5571 5561 5550 5544 5539 5525 5511 5508 5503 5490 5479 5470 5460 5450 5441 5431 5421 5410 5399 5389 5380 5371 5362
5838 5838 5838 5837 5837 5836 5836 5836 5835 5834 5833 5831 5830 5829 5827 5825 5823 5821 5819 5817 5815 5813 5811 5808 5806 5803 5801 5798 5795 5792 5788 5784 5780 5776 5773 5769 5765 5760 5756 5751 5746 5740 5735 5729 5722 5716 5709 5703 5697 5690 5681 5673 5667 5659 5651 5643 5635 5628 5622 5616 5610 5603 5595 5586 5576 5567 5558 5545 5536 5533 5523 5507 5498 5491 5479 5468 5459 5448 5439 5430 5419 5409 5399 5390 5381 5373 5364 5355
5839 5839 5839 5838 5838 5837 5837 5836 5835 5834 5833 5831 5830 5828 5826 5825 5823 5821 5819 5817 5815 5812 5810 5808 5805 5803 5800 5797 5794 5791 5787 5783 5780 5776 5772 5768 5764 5760 5755 5750 5745 5739 5733 5727 5721 5714 5708 5700 5695 5690 5682 5672 5665 5657 5649 5642 5635 5627 5618 5611 5604 5597 5589 5582 5573 5564 5555 5542 5529 5520 5512 5501 5490 5481 5470 5461 5451 5439 5430 5421 5411 5402 5392 5383 5374 5365 5356 5347
5840 5840 5840 5839 5838 5838 5837 5837 5836 5834 5833 5831 5830 5828 5826 5824 5822 5820 5818 5816 5814 5812 5810 5807 5805 5802 5799 5796 5793 5789 5786 5783 5779 5775 5771 5767 5763 5759 5754 5749 5744 5738 5731 5725 5718 5711 5705 5698 5692 5687 5681 5672 5664 5657 5648 5640 5634 5626 5618 5609 5601 5593 5586 5579 5571 5561 5550 5539 5525 5513 5503 5495 5486 5474 5463 5454 5444 5433 5424 5415 5406 5396 5385 5375 5365 5356 5347 5338
5841 5840 5840 5840 5839 5839 5838 5837 5836 5835 5833 5831 5829 5827 5826 5824 5822 5820 5818 5816 5813 5811 5809 5806 5804 5801 5798 5795 5792 5788 5785 5781 5777 5773 5769 5766 5761 5757 5752 5747 5741 5735 5729 5722 5716 5709 5703 5696 5688 5683 5679 5671 5664 5657 5649 5638 5629 5622 5616 5609 5600 5591 5583 5574 5565 5553 5540 5528 5518 5506 5495 5486 5477 5466 5455 5446 5436 5427 5418 5409 5399 5387 5376 5366 5356 5348 5339 5329
5841 5841 5841 5840 5840 5839 5838 5837 5836 5834 5833 5831 5829 5827 5825 5823 5821 5819 5817 5815 5813 5811 5808 5806 5803 5800 5797 5794 5790 5787 5783 5779 5775 5771 5767 5763 5759 5754 5749 5744 5738 5733 5726 5720 5713 5706 5700 5694 5687 5680 5675 5668 5659 5652 5646 5638 5629 5622 5614 5605 5596 5586 5575 5565 5555 5544 5530 5516 5506 5496 5485 5474 5465 5455 5446 5438 5429 5418 5409 5399 5387 5376 5367 5358 5348 5339 5330 5320
5842 5841 5841 5841 5840 5839 5838 5837 5836 5834 5832 5830 5829 5827 5825 5823 5821 5819 5817 5815 5812 5810 5808 5805 5802 5799 5796 5793 5789 5785 5782 5778 5774 5769 5765 5760 5756 5751 5745 5741 5735 5730 5724 5717 5710 5703 5696 5690 5683 5675 5670 5664 5655 5646 5638 5631 5623 5615 5604 5594 5586 5578 5568 5557 5547 5537 5526 5512 5499 5488 5478 5468 5458 5448 5437 5428 5419 5408 5398 5388 5377 5366 5358 5350 5341 5331 5322 5313